Regional Weather Roundup
Issued by NWS

Home | Current Version | Previous Version | Graphics & Text | Print | Product List | Glossary On
Versions: 1 2 3 4 5 6 7 8 9 10 11 12 13 14 15 16 17 18 19 20 21 22 23 24 25 26 27 28 29 30 31 32 33 34 35 36 37 38 39 40 41 42 43 44 45 46 47 48 49 50
553
ASUS45 KBOU 091307
RWRCO

WEATHER ROUNDUP FOR COLORADO
NATIONAL WEATHER SERVICE DENVER/BOULDER CO
600 AM MST FRI DEC 09 2016

NOTE: "FAIR" INDICATES FEW OR NO CLOUDS BELOW 12000 FEET WITH NO
SIGNIFICANT WEATHER AND/OR OBSTRUCTIONS TO VISIBILITY.

COZ001>005-013-030-031-091400-
...NORTHWEST COLORADO...

CITY           SKY/WX    TMP DP  RH WIND       PRES   REMARKS
CRAIG          CLOUDY    25  19  78 CALM      30.19R
HAYDEN         CLOUDY    23  18  80 SE9       30.17F WCI  13
MEEKER         CLOUDY    34  20  56 SW7       30.21R WCI  28
MOUNT WERNER   NOT AVBL
STEAMBOAT SPGS CLOUDY    17  15  90 CALM      30.18S
WALDEN           N/A     28  21  74 SW14G25   30.12R WCI  17
$$

COZ006>008-011-091400-
...WEST CENTRAL VALLEYS...

CITY           SKY/WX    TMP DP  RH WIND       PRES   REMARKS
GRAND JUNCTION CLOUDY    25  17  72 CALM      30.30S
MONTROSE       CLOUDY    27  15  61 CALM      30.31R
EAGLE          FLURRIES  26  24  92 E8        30.26R WCI  18
RIFLE          CLOUDY    24  16  71 CALM      30.31R
DELTA          CLOUDY    28  15  56 CALM      30.31R
NUCLA          MOCLDY    28  18  64 SE3       30.34R
$$

COZ017>023-064>068-091400-
...SOUTHWEST COLORADO...

CITY           SKY/WX    TMP DP  RH WIND       PRES   REMARKS
DURANGO        FAIR      24  14  65 NE5       30.31R WCI  18
CORTEZ         CLOUDY    27  23  85 CALM      30.31R
PAGOSA SPRINGS FAIR      17  12  80 CALM      30.31R
TELLURIDE      CLOUDY    30  24  79 CALM      30.30R
WOLF CREEK PAS CLOUDY    12  12 100 SW14G20   30.30S WCI  -3
$$

COZ009-010-012-014-032>034-037-058>063-091400-
...CENTRAL COLORADO...

CITY           SKY/WX    TMP DP  RH WIND       PRES   REMARKS
ASPEN          NOT AVBL
BUENA VISTA    MOCLDY    34  19  53 NW14G24   30.14R WCI  25
COPPER MTN     LGT SNOW  21  16  79 MISG      30.17R VSB 1
BERTHOUD PASS  HVY SNOW  14   3  62 MISG      30.08R VSB 1/4
COTTONWOOD PAS FAIR      34  19  55 W30G49    30.10F WCI  20
GUNNISON       MOCLDY    16  14  92 CALM      30.30R
KREMMLING      LGT SNOW  34  28  80 CALM      30.17R
LEADVILLE      LGT SNOW  22  19  89 N7        30.15R FOG     WCI  13
MONARCH PASS   CLOUDY    16  14  93 W40       30.28F WCI  -7
SALIDA         FAIR      34  20  57 SW9G18    30.22S WCI  27
SUNLIGHT       LGT SNOW  19  18  93 SW17G30   30.23R WCI   4
WILKERSON PASS MOCLDY    19  18  93 W16G25    30.10F WCI   5
$$

COZ069>075-091400-
...SAN LUIS VALLEY/SANGRE DE CRISTO MOUNTAINS...

CITY           SKY/WX    TMP DP  RH WIND       PRES   REMARKS
ALAMOSA        FAIR       1  -3  83 SW5       30.25R WCI  -9
LA VETA PASS   FAIR      18  12  79 NE29G40   30.11F WCI  -2
SAGUACHE       FAIR      12   9  85 SE6       30.23R WCI   3
$$

COZ035-036-038>040-091400-
...NORTHERN COLORADO FRONT RANGE...

CITY           SKY/WX    TMP DP  RH WIND       PRES   REMARKS
DENVER INTL AP FAIR       9   4  80 SW15      30.03F WCI  -8
DMNS CITY PARK   N/A      9   6  85 SE7       30.07S WCI  -2
AURORA         PTCLDY     6   4  89 S6        30.04F WCI  -4
FRONT RANGE AP NOT AVBL
ERIE MUNI ARPT FAIR       5   2  88 N5        30.07F WCI  -4
BOULDER MUN AP FAIR       9   5  85 CALM      30.05F
CENTENNIAL     FAIR      17  11  77 S5        30.03S WCI  10
BROOMFIELD     MOCLDY     7   5  92 SW8       30.05S WCI  -6
FORT COLLINS   FAIR       7   5  92 CALM      30.09R
LONGMONT       FAIR       4   0  81 CALM      30.10F
$$

COZ041-046-047-076>085-087-088-091400-
...PIKES PEAK/PALMER DIVIDE AND SOUTHERN FOOTHILLS...

CITY           SKY/WX    TMP DP  RH WIND       PRES   REMARKS
COLO. SPRINGS  FAIR      10   5  80 NW5       30.09S WCI   2
A. F. ACADEMY  FAIR       5   0  80 N3        30.07R
SCHRIEVER AFB  NOT AVBL
ELLICOTT       LGT RAIN N/A N/A N/A CALM        N/A
FALCON         FAIR      30  22  71 W13       30.06S WCI  20
FORT CARSON    FAIR       9   3  78 SW5       30.08F WCI   0
LIMON          FAIR       2  -1  88 CALM      30.10S
MONUMENT HILL  FAIR      19  14  79 S6        30.07R WCI  11
TRINIDAD       FAIR      22  12  65 W10       30.11S WCI  11
$$

COZ042>045-048>051-090-091-091400-
...NORTHEAST COLORADO...

CITY           SKY/WX    TMP DP  RH WIND       PRES   REMARKS
GREELEY ARPT   FAIR       6   1  80 CALM      30.13R
AKRON          FAIR       6   0  76 S9        30.11S WCI  -8
BURLINGTON     FAIR       9   2  73 S14       30.19S WCI  -7
WRAY           FAIR      10   5  79 S8        30.23F WCI  -1
STERLING       FAIR      10   5  79 S3        30.15R
HOLYOKE        FAIR      14   9  79 S14       30.21F WCI  -1
FORT MORGAN    FAIR       5   0  79 W5        30.12R WCI  -4
$$

COZ086-089-092>099-091400-
...SOUTHEAST COLORADO...

CITY           SKY/WX    TMP DP  RH WIND       PRES   REMARKS
PUEBLO         FAIR       7   1  76 CALM      30.16F
LA JUNTA       FAIR       8   2  76 W7        30.21S WCI  -3
LAMAR          FAIR       5   1  83 SW7       30.21F WCI  -7
SPRINGFIELD      N/A     15  12  88 SE7       30.19R WCI   5
$$




USA.gov is the U.S. government's official web portal to all federal, state and local government web resources and services.